Location: Wald
(31.7579°N, 86.6655°W)
Time: 00:53:15
(UTC+00:00)

CENTAUR R/B - Visible Passes

Search period start: 24 October 2020 00:00
Search period end: 03 November 2020 00:00
Orbit: 755 x 1433 km, 63.4° (Epoch: 02 October)

Date Brightness Start Highest point End Pass type
(mag) Time Alt. Az. Time Alt. Az. Time Alt. Az.
24 Oct 4.3 08:42:25 24° ENE 08:42:25 24° ENE 08:45:16 10° NE visible
24 Oct 3.3 10:29:39 28° WNW 10:30:12 28° NW 10:35:49 10° N visible
25 Oct 3.2 09:43:30 38° N 09:43:30 38° N 09:47:57 10° NNE visible
26 Oct 4.2 08:57:17 24° NNE 08:57:17 24° NNE 08:59:45 10° NNE visible
26 Oct 4.1 10:44:29 15° NW 10:45:00 15° NW 10:48:42 10° N visible
27 Oct 5.2 08:10:58 11° NE 08:10:58 11° NE 08:11:11 10° NE visible
27 Oct 4.0 09:58:10 21° NNW 09:58:10 21° NNW 10:01:27 10° N visible
28 Oct 4.4 09:11:47 19° N 09:11:47 19° N 09:13:39 10° NNE visible
29 Oct 5.1 08:25:21 11° NNE 08:25:21 11° NNE 08:25:33 10° NNE visible
29 Oct 4.5 10:12:33 12° NNW 10:12:33 12° NNW 10:14:04 10° N visible
30 Oct 4.7 09:26:03 13° N 09:26:03 13° N 09:27:02 10° N visible
